KHQU

Details ICAO KHQU (HQU)
Name THOMSON MCDUFFIE CO
Region United States
Timezone America/New_York (UTC-4.0)
Plans Departing 6
Arriving 6
Stats Elevation 498 ft / 152 m (AMSL)
Location 33.529713° -82.516464°
Runways 1
Magnetic Variation 6.409° W
Sunrise 2018-05-21 10:27:12 UTC / 2018-05-21 06:27:12 Local
Sunset 2018-05-22 00:29:00 UTC / 2018-05-21 20:29:00 Local
Advertisement - Login to hide

Runways

ID Width Length Bearing (true) Bearing (mag) Surface Threshold Offset Overrun Length
10 100 ft / 30 m 5,190 ft / 1,582 m 92.66° 99.07° Asphalt 0 ft / 0 m 0 ft / 0 m
28 100 ft / 30 m 5,190 ft / 1,582 m 272.67° 279.08° Asphalt 200 ft / 61 m 0 ft / 0 m

Approach Navaids

Runway Type Ident Frequency Range Bearing (true) Bearing (mag) Slope Elevation
10 Localiser IAAQ 110.75 MHz 18 nm / 33 km 92.67° 99.08° - 500 ft / 152 m (AMSL)
10 Glidescope IAAQ 110.75 MHz 10 nm / 19 km 92.66° 99.07° 3.00° 453 ft / 138 m (AMSL)

Map

Weather


0- 5 10 15 20 25 30 35+ Temperature / ° C

Clouds and Precipitation
Forecast for 2018-05-21 12:00 UTC. Updated 16 minutes ago

Ground ~20,000 ft ~40,000 ft Winds

METAR

KHQU 211135Z AUTO 19003KT 1/2SM FG OVC003 19/19 A3022 RMK AO2 T01920190

TAF

Not found

Frequencies

Recorded 120.62 MHz AWOS 3
Approach 126.80 MHz AUGUSTA APP/DEP
Unicom 122.80 MHz CTAF/UNICOM
Warning: Do not use this data for real-world aviation or navigation. No guarantee of current accuracy is given.